This is the latest recevied weather packets stored in our database for station/object KC0UFP. If no packets are shown the sender has not sent any weather packets the latest 10 day(s).
| Time | Temp. | Humidity | Pressure | Rain* | Wind** | Luminosity | Snow |
|---|---|---|---|---|---|---|---|
| 1778026104 | 18.89° C | 99% | 1004.9 hPa | 0 mm | - | 12 W/m² | - |
| 1778025802 | 18.33° C | 99% | 1005.3 hPa | 0 mm | - | 12 W/m² | - |
| 1778025499 | 18.33° C | 99% | 1005.1 hPa | 0 mm | - | 15 W/m² | - |
| 1778025196 | 18.33° C | 99% | 1005.2 hPa | 0.51 mm | - | 19 W/m² | - |
| 1778024893 | 18.33° C | 99% | 1005.4 hPa | 1.27 mm | - | 21 W/m² | - |
| 1778024591 | 18.33° C | 99% | 1005.6 hPa | 0.51 mm | - | 31 W/m² | - |
| 1778024288 | 18.33° C | 99% | 1005.5 hPa | 0.51 mm | - | 26 W/m² | - |
| 1778023986 | 18.33° C | 99% | 1005.9 hPa | 0.51 mm | - | 27 W/m² | - |
| 1778023682 | 18.33° C | 99% | 1006.1 hPa | 0 mm | - | 33 W/m² | - |
| 1778023380 | 18.33° C | 99% | 1006.4 hPa | 0 mm | - | 29 W/m² | - |
| 1778023076 | 18.33° C | 99% | 1006.2 hPa | 0 mm | - | 25 W/m² | - |
| 1778022775 | 18.33° C | 99% | 1006.1 hPa | 0.51 mm | - | 37 W/m² | - |
| 1778022473 | 17.78° C | 99% | 1005.9 hPa | 0.51 mm | - | 32 W/m² | - |
| 1778022169 | 17.78° C | 99% | 1006 hPa | 0.51 mm | - | 34 W/m² | - |
| 1778021866 | 17.78° C | 99% | 1006 hPa | 1.27 mm | - | 33 W/m² | - |
| 1778021564 | 17.78° C | 99% | 1006 hPa | 1.27 mm | - | 41 W/m² | - |
| 1778021258 | 17.78° C | 99% | 1005.9 hPa | 1.27 mm | - | 40 W/m² | - |
| 1778020956 | 17.78° C | 99% | 1006.1 hPa | 0.51 mm | - | 33 W/m² | - |
| 1778020653 | 17.78° C | 99% | 1006 hPa | 0 mm | - | 27 W/m² | - |
| 1778020350 | 17.78° C | 99% | 1006 hPa | 0.51 mm | - | 22 W/m² | - |
| 1778020046 | 17.78° C | 99% | 1005.9 hPa | 1.27 mm | - | 31 W/m² | - |
| 1778019742 | 17.78° C | 99% | 1005.5 hPa | 0.51 mm | - | 52 W/m² | - |
| 1778019439 | 17.78° C | 99% | 1006.2 hPa | 0.51 mm | - | 45 W/m² | - |
| 1778019136 | 17.78° C | 99% | 1005.9 hPa | 0.51 mm | - | 45 W/m² | - |
| 1778018833 | 17.78° C | 99% | 1006.2 hPa | 0.51 mm | - | 37 W/m² | - |
* Rain latest hour (hover to see other rain measurements)
** Current wind speed in m/s (hover to see current wind gust speed)